Back to catalog

STARLINK-37008

AliveCommunicationsVLEO
NORAD 68564·PAYLOAD·🇺🇸 United States

Launched Apr 2, 2026 from Cape Canaveral Space Force Station

Loading…

Next Passes (next 24 hours)

TLE

FreshSource: CelesTrak SupGP

Epoch: Sep 14, 2026, 15:00 UTC

1 68564C 26070Y   26257.62548611  .00030829  00000+0  91121-3 0  2574
2 68564  53.1585 200.8859 0001185  81.5871 120.4912 15.34362936    17

Track STARLINK-37008 in real time with AllMySat

Download on the App Store